Find Starlink 30809

NORAD ID: 58183 Int'l Des: 2023-167 Owner: SPXS Country: US Constellation: starlink operational
LEOCIRCULAR

Live Position

Loading 3D Globe...

About Starlink 30809

Description loading...

Upcoming Passes

Passes for default location (London). Set your location on the main map for personalized predictions.

Altitude History

Loading altitude history...

Two-Line Element Set

1 58183U 23167J 26124.48179500 .00000773 00000-0 37626-4 0 9998
2 58183 43.0038 188.6683 0001637 259.3914 100.6754 15.27562446139519
Epoch: May 4, 2026 • Age: 18 hours

Current Status

Altitude 493.6 km
Velocity 7.62 km/s
Sub-Earth Point -38.73°S, 111.54°E
Launch Date Oct 30, 2023
Age 2.5 years
Type internet

Technical Details

Classification Payload
Mass 730.00 kg
Dry Mass 700.00 kg
Total Mass 730.00 kg
Length 0.30 m
Diameter 4.10 m
Span 29.00 m
Shape Box + pan
Manufacturer SPXS
Bus Type Starlink V2M
Phase Status In Orbit
Owner/State SPXS/US

Most Searched